Weather Roundup
Issued by NWS Chicago, IL

Home | Current Version | Previous Version | Text Only | Print | Product List | Glossary Off
Versions: 1 2 3 4 5 6 7 8 9 10 11 12 13 14 15 16 17 18 19 20 21 22 23 24 25 26 27 28 29 30 31 32 33 34 35 36 37 38 39 40 41 42 43 44 45 46 47 48 49 50

000
NZUS59 KLOT 271104
HRRLOT

CHICAGO AREA WEATHER ROUNDUP
NATIONAL WEATHER SERVICE CHICAGO/ROMEOVILLE IL
600 AM CDT TUE JUN 27 2017

NOTE: "FAIR" INDICATES FEW OR NO CLOUDS BELOW 12,000 FEET WITH NO
SIGNIFICANT WEATHER AND/OR OBSTRUCTIONS TO VISIBILITY.

* THESE STATIONS ARE NOT UNDER NWS QUALITY CONTROL. THEY ALSO MAY NOT
  REPORT WEATHER SUCH AS PRECIPITATION OR FOG.

ILZ005-006-012>014-019>023-271200-
NORTHEAST ILLINOIS

CITY           SKY/WX    TMP DP  RH WIND       PRES   REMARKS
OHARE          PTCLDY    52  46  80 W5        30.11R
MIDWAY         PTCLDY    55  47  74 SW5       30.12R
AURORA         PTCLDY    46  44  93 CALM      30.13S
LANSING*       CLEAR     47  44  89 CALM      30.13S
JOLIET*        CLEAR     48  47  98 CALM      30.14R
WAUKEGAN       CLEAR     52  48  86 VRB3      30.09S
DUPAGE AIRPORT PTCLDY    49  47  93 S3        30.12R
WHEELING       CLEAR     51  48  89 S3        30.12R
MORRIS*        CLEAR     49  45  84 CALM      30.13R
LEWIS AIRPORT* CLEAR     50  45  83 W3        30.13R
NORTHERLY ISL    N/A     58  45  62 W5          N/A
$$

WIZ051-052-058>065-066-070>072-271200-
SOUTHEAST WISCONSIN

CITY           SKY/WX    TMP DP  RH WIND       PRES   REMARKS
MILWAUKEE      PTCLDY    55  48  77 W7        30.09R
KENOSHA*       CLEAR     47  46  97 W3        30.10R
RACINE*        CLEAR     52  46  80 W6        30.11R
WAUKESHA       CLEAR     46  45  93 CALM      30.10S
$$

INZ001>003-010>013-019-020-271200-
NORTHWEST INDIANA

CITY           SKY/WX    TMP DP  RH WIND       PRES   REMARKS
GARY*          CLEAR     48  45  87 CALM      30.13R
MICHIGAN CITY* NOT AVBL
RENSSELAER*    NOT AVBL
VALPARAISO     CLEAR     53  47  79 W5        30.13R
$$

LMZ740>746-271200-
SOUTHERN LAKE MICHIGAN

STATION/POSITION TIME  SKY/WX   TEMP WIND        PRES    VSBY
                                AIR  DIR/SP/G
                 (UTC)          (F)  (DEG/KT/KT) (MB)    (MI)
HARRISON CRIB    1040            60  270/  6/  7   N/A
BURNHAM HARBOR   1100            59                N/A
CALUMET HARBOR   1030            55  220/  3/  4 1019.3R
BURNS HARBOR     1040            61  300/  7/  8 1020.0R
MICHIGAN CITY    1040            60  280/  6/  8   N/A
$$

ABBREVIATIONS USED IN REMARKS
   TC - TEMPERATURE IN CELSIUS
  WCI - WIND CHILL INDEX
   HX - HEAT INDEX
  VSB - VISIBILITY
$$




USA.gov is the U.S. government's official web portal to all federal, state and local government web resources and services.